Regional Weather Roundup
Issued by NWS

Home | Current Version | Previous Version | Graphics & Text | Print | Product List | Glossary On
Versions: 1 2 3 4 5 6 7 8 9 10 11 12 13 14 15 16 17 18 19 20 21 22 23 24 25 26 27 28
000
ASUS45 KTFX 260310
RWRMT
MONTANA REGIONAL WEATHER ROUNDUP
NATIONAL WEATHER SERVICE GREAT FALLS MT
900 PM MDT MON SEP 25 2017

NOTE: "FAIR" INDICATES FEW OR NO CLOUDS BELOW 12000 FEET WITH NO
SIGNIFICANT WEATHER AND/OR OBSTRUCTIONS TO VISIBILITY.

MTZ001>007-043-260400-
WEST OF THE DIVIDE

CITY           SKY/WX    TMP DP  RH WIND       PRES   REMARKS
KALISPELL      LGT RAIN  52  49  89 CALM      30.07R
MISSOULA       CLOUDY    51  47  86 W3        30.11R
BUTTE          CLOUDY    44  42  93 SE6       30.13R
MULLAN PASS    CLOUDY    43  37  79 NW3       30.15R
ANACONDA         N/A     48  37  66 SW10      30.12R
DEER LODGE       N/A     48  39  71 CALM      30.13R
EUREKA           N/A     57  43  58 MISG      30.03R
HAMILTON         N/A     52  39  62 SE5       30.12S
LIBBY            N/A     55  45  67 CALM      30.04R VSB 1
PLAINS           N/A     59  45  59 SW2       30.07R
RONAN            N/A     51  45  80 CALM      30.11R
$$

MTZ008-052>055-260400-
SOUTHWEST MONTANA

CITY           SKY/WX    TMP DP  RH WIND       PRES   REMARKS
BOZEMAN        MOCLDY    50  40  68 W7        30.09R
DILLON         CLOUDY    45  38  76 SE8       30.12R
W YELLOWSTONE  CLOUDY    41  27  56 SW6       30.15R
ENNIS          CLOUDY    48  32  53 NW7       30.16R
THREE FORKS      N/A     45  38  76 CALM      30.07R
TWIN BRIDGES     N/A     46  38  74 CALM      30.10R
$$

MTZ009-010-012-014-046-048-049-054-260400-
EAST SLOPES AND CENTRAL MONTANA

CITY           SKY/WX    TMP DP  RH WIND       PRES   REMARKS
CUT BANK       MOCLDY    53  37  54 W13       30.01R
GREAT FALLS    CLOUDY    54  35  48 SW8       30.03R
MALMSTROM AFB  CLOUDY    54  35  48 NE9       30.04R
HELENA         CLOUDY    54  41  61 W6        30.06S
BOWMANS CRNR   MOCLDY    49  41  73 S6        30.03S
CHOTEAU          N/A     52  37  58 CALM      30.05R
FAIRFIELD      MOCLDY    54  33  44 N6        30.03R
POWER          MOCLDY    52  35  53 SE7       30.03R
RAYNESFORD     MOCLDY    48  35  62 E5        30.04R
ULM            CLOUDY    55  41  58 CALM      30.04R
$$

MTZ011-013-016-021-045-047-050-051-260400-
NORTH CENTRAL MONTANA

CITY           SKY/WX    TMP DP  RH WIND       PRES   REMARKS
HAVRE          PTCLDY    49  36  61 SE5       29.99S
LEWISTOWN      MOCLDY    45  32  60 S6        30.04S
N BAR RANCH    MOCLDY    41  34  75 CALM      30.09R
CHINOOK          N/A     52  36  54 E5        30.01R
DENTON           N/A     49  32  50 CALM      30.00R
GEYSER         MOCLDY    48  35  59 SW6       30.04R
JUDITH GAP       N/A     42  30  64 NW8       30.04R
WINIFRED       MOCLDY    44  32  61 SE10      30.03R
$$

MTZ017>020-022>027-061-062-260400-
NORTHEAST MONTANA

CITY           SKY/WX    TMP DP  RH WIND       PRES   REMARKS
GLASGOW        CLOUDY    49  40  71 SE10      30.08R
JORDAN           N/A     45  39  79 SE10      30.08R
SIDNEY           N/A    N/A N/A N/A MISG        N/A
WOLF POINT     CLOUDY    48  40  73 CALM      30.11S
MALTA          CLEAR     50  37  62 SE10      30.04S
PLENTYWOOD       N/A     46  45  93 CALM      30.12S
POPLAR           N/A     46  43  87 SE3       30.12S
SCOBEY           N/A     47  36  65 SE3       30.08S
$$

MTZ028>42-056>058-260400-
SOUTHCENTRAL AND SOUTHEAST MONTANA

CITY           SKY/WX    TMP DP  RH WIND       PRES   REMARKS
BAKER          CLOUDY    46  39  76 E3        30.10S
BILLINGS       CLOUDY    53  37  54 W13       30.02S
LIVINGSTON     CLOUDY    48  36  63 NW13      30.07R
MILES CITY     CLOUDY    43  41  93 E5        30.09S
BIG TIMBER     CLOUDY    48  32  53 SW15      30.07S
EKALAKA          N/A     40  37  89 SE3       30.06S
HARLOWTON        N/A     48  33  57 MISG      30.04R
LAUREL           N/A     52  39  62 SW14      30.04R
$$

REGIONAL REPORTS...DAKOTAS

CITY           SKY/WX    TMP DP  RH WIND       PRES   REMARKS
WILLISTON      LGT RAIN  48  46  93 CALM      30.13R
MINOT          CLOUDY    50  44  80 CALM      30.13S
DICKINSON      CLOUDY    45  44  97 NE5       30.10S
BEACH          CLOUDY    43  43 100 E5        30.14S
CROSBY         CLOUDY    46  46 100 SW5       30.14S
TIOGA          CLOUDY    45  45 100 CALM      30.15R
WATFORD CITY   CLOUDY    46  46 100 S3        30.12S
BISMARCK       CLOUDY    47  45  93 E3        30.13S
GRAND FORKS    CLOUDY    51  48  89 N8        30.10F
FARGO          LGT RAIN  51  50  96 N9        30.08R
BUFFALO SD       N/A     47  45  93 CALM      30.03F
RAPID CITY     CLOUDY    48  43  81 SE8       30.11R
$$

REGIONAL REPORTS...WYOMING/IDAHO/WASHINGTON

CITY           SKY/WX    TMP DP  RH WIND       PRES   REMARKS
GILLETTE       CLOUDY    44  41  89 S5        30.09S
SHERIDAN       CLOUDY    44  41  89 CALM      30.07F
BUFFALO WY     CLOUDY    44  37  76 W3        30.11S
CODY           CLOUDY    45  38  76 S3        30.10R
IDAHO FALLS    PTCLDY    49  34  56 S6        30.14R
SALMON         CLOUDY    51  42  71 SE3       30.14R
BOISE          MOCLDY    59  38  45 NE3       30.07R
SPOKANE        MOCLDY    60  46  59 S3        30.06R
$$

REGIONAL REPORTS...ALBERTA

CITY           SKY/WX    TMP DP  RH WIND       PRES   REMARKS
EDMONTON       MOCLDY    55  46  71 SW3       29.91R
CALGARY        MOCLDY    57  41  54 E7        29.96R
LETHBRIDGE     MOCLDY    57  36  44 SW10      29.96S
MEDICINE HAT   MOCLDY    59  37  44 CALM      29.95R
$$

REGIONAL REPORTS...SASKATCHEWAN

CITY           SKY/WX    TMP DP  RH WIND       PRES   REMARKS
SWIFT CURRENT  CLEAR     48  30  49 S14       29.98S
REGINA         MOCLDY    48  36  61 SE12G18   30.10S
SASKATOON      MOCLDY    54  36  50 SE12      30.01R
$$




USA.gov is the U.S. government's official web portal to all federal, state and local government web resources and services.